STARLINK-35383, 65793

Orbit data source: Space-Track

STARLINK-35383, 65793 is a payload satellite owned by SpaceX/Seattle (US) in SSO that was launched on Fri, 26 Sep 2025 UTC via an FALCON 9 launch vehicle from the Air Force Western Test Range (AFWTR). Payload-class satellites include a variety of spacecraft equipped with specific instruments for various scientific and technological missions. These include communications satellites like Starlink; space stations such as the ISS; scientific satellites like the Hubble; Earth observation satellites from companies like Planet Labs, Umbra, and HawkEye 360; GPS; miniature CubeSats for education and research; and military/defense satellites.

Loading next visibility...
Identifier
65793, 2025-218C
Orbit
SSO
Country
Flag of USUS
Related business
Manufacturer
SpaceX/Seattle
Mission
Operational Commercial Communications
Bus & Motor
STARLINK V2MO, Unknown motor
Mass
575 kg wet, ~530 kg dry
Launch date (UTC)
2025-09-26 (2 months ago)
Launch vehicle
FALCON 9
Launch site
Air Force Western Test Range (AFWTR)
Object type
Payload
Rocket body
Debris
Shape & HBR
Box + 2 Pan, 17.7 m
Radar Cross Section
36.964 m²

Expand to show TLE details & history
Last TLE update: 15 hours ago

TLE from 15 hours ago
0 STARLINK-35383
1 65793U 25218C   25340.58646167  .00010707  00000-0  74488-3 0  9994
2 65793  97.6009 201.2316 0002285  81.8037 278.3449 15.05660149 10962
Epoch: 2025-12-06T14:04Z
TLE epoch observation values (Epoch: 2025-12-06T14:04:30.288Z)
Latitude
-0°
Longitude
-85.50667°
Altitude
552.316 km
Speed
7.586 km/s
True Right ascension
13h 24m 55s
True Declination
0° 00' 00"
Sunlit
Object was in daylight at epoch
Visualization orbit readout
Latitude
Unknown
Longitude
Unknown
Altitude
Unknown
Speed
Unknown
Apparent Right ascension
Unknown
Apparent Declination
Unknown
Sunlit
N/A
Visualization observer readout
Local Sidereal Time
03:28:55
Azimuth
Unknown
Elevation
Unknown
Doppler factor
Unknown
Orbital elements
Apogee altitude
548.056 km
Perigee altitude
544.891 km
Semi-major axis
6,924.61 km
Eccentricity
0.00023
Inclination
97.6009°
RAAN
201.2316°
Arg. of periapsis
81.8037°
True anomaly
278.31899°
Mean anomaly
278.3449°
Eccentric anomaly
278.33195°
Mean motion
3.76661 °/min
Orbital period
95.58 mins
BSTAR
0.00074488
Loading maneuver chart data...
Computing Atmospheric mass density...
Loading historical data...
Loading historical data...
Loading historical data...
Loading historical data...
Loading historical data...
Loading historical data...
Loading historical data...

Documentation

Showing up to 5 results
|